Weather History for Las Vegas, NV

Change the Weather History Date:

Tuesday, November 6, 2012

  Actual Average Record
Temperature  
Mean Temperature 70 °F 61 °F  
Max Temperature 82 °F 71 °F 85 °F (1988)
Min Temperature 57 °F 50 °F 27 °F (1940)
Degree Days  
Heating Degree Days 0 5  
Month to date heating degree days 0 27  
Since 1 July heating degree days 19 66  
Cooling Degree Days 5 1  
Month to date cooling degree days 19 7  
Year to date cooling degree days 4023 3563  
Growing Degree Days 19 (Base 50)    
Moisture  
Dew Point 32 °F    
Average Humidity 29    
Maximum Humidity 43    
Minimum Humidity 14    
Precipitation  
Precipitation 0.00 in 0.01 in 0.96 in (1960)
Month to date precipitation 0.00 0.07  
Year to date precipitation 4.82 3.40  
Snow  
Snow 0.00 in 0.00 in 0.00 in ()
Month to date snowfall 0.0 0.0  
Since 1 July snowfall T 0.0  
Since 1 September snowfall T 0.0  
Snow Depth 0.00 in    
Sea Level Pressure  
Sea Level Pressure 30.05 in    
Wind  
Wind Speed 6 mph (SSW)    
Max Wind Speed 13 mph    
Max Gust Speed 14 mph    
Visibility 10 miles    
Events      
T = Trace of Precipitation, MM = Missing Value Source: NWS Daily Summary

Daily Weather History Graph

Daily Weather History Graph

Search for Another Location

Airport:

Trip Planner

Search our weather history database for the weather conditions in past years. The results will help you decide how hot, cold, wet, or windy it might be!

Date:

Astronomy

Nov. 06, 2012 Rise Set
Actual Time 6:08 AM PST 4:39 PM PST
Civil Twilight 5:41 AM PST 5:06 PM PST
Nautical Twilight 5:11 AM PST 5:36 PM PST
Astronomical Twilight 4:41 AM PST 6:06 PM PST
Moon 11:20 PM PST (11/6) 12:04 PM PST (11/6)
Length of Visible Light 11h 24m
Length of Day
10h 30m
Waning Gibbous, 52% of the Moon is Illuminated
Nov 6
Waning Gibbous
Nov 6
Last Quarter
Nov 13
New
Nov 20
First Quarter
Nov 28
Full

Hourly Weather History & Observations

Time (PST) Temp. Dew Point Humidity Pressure Visibility Wind Dir Wind Speed Gust Speed Precip Events Conditions
12:56 AM 62.1 °F 35.1 °F 37% 30.07 in 10.0 mi SSW 10.4 mph - N/A   Clear
1:56 AM 61.0 °F 34.0 °F 36% 30.08 in 10.0 mi SSW 9.2 mph - N/A   Clear
2:56 AM 61.0 °F 35.1 °F 38% 30.07 in 10.0 mi SW 5.8 mph - N/A   Clear
3:56 AM 59.0 °F 35.1 °F 41% 30.08 in 10.0 mi SSW 10.4 mph - N/A   Clear
4:56 AM 57.9 °F 35.1 °F 42% 30.09 in 10.0 mi SSW 9.2 mph - N/A   Clear
5:56 AM 57.9 °F 34.0 °F 41% 30.11 in 10.0 mi SSW 9.2 mph - N/A   Clear
6:56 AM 59.0 °F 35.1 °F 41% 30.12 in 10.0 mi SSW 9.2 mph - N/A   Clear
7:56 AM 64.9 °F 36.0 °F 34% 30.14 in 10.0 mi South 5.8 mph - N/A   Clear
8:56 AM 70.0 °F 33.1 °F 26% 30.13 in 10.0 mi South 4.6 mph - N/A   Clear
9:56 AM 73.0 °F 34.0 °F 24% 30.12 in 10.0 mi South 4.6 mph - N/A   Clear
10:56 AM 77.0 °F 32.0 °F 19% 30.09 in 10.0 mi Calm Calm - N/A   Clear
11:56 AM 78.1 °F 30.0 °F 17% 30.06 in 10.0 mi Calm Calm - N/A   Clear
12:56 PM 80.1 °F 28.9 °F 15% 30.03 in 10.0 mi South 4.6 mph - N/A   Clear
1:56 PM 80.6 °F 28.4 °F 15% 30.06 in 10.0 mi SSW 3.5 mph - N/A   Clear
2:56 PM 82.0 °F 28.0 °F 14% 30.00 in 10.0 mi Calm Calm - N/A   Clear
3:56 PM 81.0 °F 28.0 °F 14% 29.99 in 10.0 mi Calm Calm - N/A   Clear
4:56 PM 78.1 °F 28.9 °F 17% 29.98 in 10.0 mi SSW 5.8 mph - N/A   Clear
5:56 PM 75.0 °F 32.0 °F 21% 29.99 in 10.0 mi SSW 8.1 mph - N/A   Clear
6:56 PM 71.1 °F 32.0 °F 24% 29.99 in 10.0 mi SW 6.9 mph - N/A   Clear
7:56 PM 66.9 °F 30.9 °F 26% 30.00 in 10.0 mi SSW 9.2 mph - N/A   Clear
8:56 PM 66.0 °F 30.9 °F 27% 30.00 in 10.0 mi SSW 9.2 mph - N/A   Clear
9:56 PM 64.0 °F 30.9 °F 29% 30.00 in 10.0 mi SSW 9.2 mph - N/A   Clear
10:56 PM 63.0 °F 32.0 °F 31% 30.00 in 10.0 mi WSW 5.8 mph - N/A   Clear
11:56 PM 62.1 °F 32.0 °F 32% 29.99 in 10.0 mi SSW 9.2 mph - N/A   Clear